User: anonymous   Login
Location: Krasnoyarskiy Pitomnik
(51.1333°N, 71.6167°E)
Time: 19:11:21
(UTC+00:00)
Language:

Cosmos 1844 Rocket - Orbit

View from above orbital plane
View from above orbital plane
View from above satellite
View from above satellite

Ground track
Ground track

The orbit data is extracted from the following two-line orbital elements,

1 17974U 87041B   22022.28862557 -.00000199  00000-0 -74720-4 0  9994
2 17974  71.0094 329.8988 0014560 338.3295 127.1465 14.17283322794488
Epoch (UTC): 22 January 2022 06:55:37
Eccentricity: 0.0014560
inclination: 71.0094°
perigee height: 824 km
apogee height: 845 km
right ascension of ascending node: 329.8988°
argument of perigee: 338.3295°
revolutions per day: 14.17283322
mean anomaly at epoch: 127.1465°
orbit number at epoch: 79448

The dashed part of the orbit path shows where the satellite is in the earth's shadow,  

DLR